Main page
METAR-TAF:

METAR-TAF

Airports :

Doctor Fernando Piragine Niveyro International Airport

Corrientes, Argentina

latitude: 27-27S, longitude: 058-46W, elevation: 62 m

Current weather observation

The report was made 52 minutes ago, at 19:00 UTC
Wind 9 kt from the East
Temperature 25°C
Humidity 30%
Pressure 1013 hPa
Visibility 10 km or more
no clouds below 1500 m and no cumulonimbus

METAR: SARC 241900Z 09009KT CAVOK 25/06 Q1013

Time: 16:52 (19:52 UTC)


TAF: missing

Weather observations and forecasts of more than 4000 airports (METAR and TAF reports).

The available stations are represented by yellow and red dots on the map.

Hover mouse over dot to see the name of the station.

Then click to see weather observations and forecasts.

To change the map : click on the green buttons with a black cross to zoom in, on the green button with a dash to zoom out, or on the green arrows for adjacent maps.


METAR-TAF: